TimeCDT,TemperatureF,Dew PointF,Humidity,Sea Level PressureIn,VisibilityMPH,Wind Direction,Wind SpeedMPH,Gust SpeedMPH,PrecipitationIn,Events,Conditions,WindDirDegrees,DateUTC
12:15 AM,77.9,74.5,89,29.98,10.0,Calm,Calm,-,N/A,,Clear,0,2013-08-23 05:15:00
12:35 AM,77.5,74.5,90,29.98,10.0,Calm,Calm,-,N/A,,Clear,0,2013-08-23 05:35:00
12:55 AM,77.4,74.3,90,29.98,10.0,Calm,Calm,-,N/A,,Clear,0,2013-08-23 05:55:00
1:15 AM,77.0,73.6,89,29.98,10.0,Calm,Calm,-,N/A,,Clear,0,2013-08-23 06:15:00
1:35 AM,76.6,73.4,90,29.98,10.0,Calm,Calm,-,N/A,,Clear,0,2013-08-23 06:35:00
1:55 AM,76.6,73.6,90,29.98,10.0,Calm,Calm,-,N/A,,Clear,0,2013-08-23 06:55:00
2:15 AM,77.4,74.1,90,29.97,10.0,Calm,Calm,-,N/A,,Clear,0,2013-08-23 07:15:00
2:35 AM,76.8,73.6,90,29.97,10.0,Calm,Calm,-,N/A,,Clear,0,2013-08-23 07:35:00
2:55 AM,75.9,73.0,91,29.96,10.0,Calm,Calm,-,N/A,,Clear,0,2013-08-23 07:55:00
3:15 AM,76.8,73.6,90,29.96,10.0,Calm,Calm,-,N/A,,Clear,0,2013-08-23 08:15:00
3:35 AM,76.5,73.4,90,29.95,10.0,Calm,Calm,-,N/A,,Clear,0,2013-08-23 08:35:00
3:55 AM,75.4,72.7,91,29.95,10.0,Calm,Calm,-,N/A,,Clear,0,2013-08-23 08:55:00
4:15 AM,75.4,73.4,94,29.95,10.0,North,3.5,-,N/A,,Clear,360,2013-08-23 09:15:00
4:35 AM,75.9,73.6,92,29.95,10.0,NNW,3.5,-,N/A,,Scattered Clouds,340,2013-08-23 09:35:00
4:55 AM,75.4,73.4,94,29.95,10.0,North,3.5,-,N/A,,Scattered Clouds,350,2013-08-23 09:55:00
5:15 AM,75.4,73.4,94,29.95,10.0,North,3.5,-,N/A,,Mostly Cloudy,360,2013-08-23 10:15:00
5:35 AM,75.2,73.4,94,29.95,10.0,North,4.6,-,N/A,,Scattered Clouds,360,2013-08-23 10:35:00
5:55 AM,75.2,73.4,94,29.95,10.0,North,3.5,-,N/A,,Scattered Clouds,10,2013-08-23 10:55:00
6:15 AM,75.2,73.4,94,29.95,10.0,North,3.5,-,N/A,,Clear,350,2013-08-23 11:15:00
6:35 AM,74.5,72.7,94,29.95,10.0,North,3.5,-,N/A,,Clear,350,2013-08-23 11:35:00
6:55 AM,74.3,72.5,94,29.96,10.0,North,3.5,-,N/A,,Clear,350,2013-08-23 11:55:00
7:15 AM,73.9,72.5,95,29.96,7.0,North,4.6,-,N/A,,Clear,350,2013-08-23 12:15:00
7:35 AM,74.7,73.2,95,29.98,7.0,North,3.5,-,N/A,,Clear,10,2013-08-23 12:35:00
7:55 AM,75.6,74.1,95,29.98,10.0,North,4.6,-,N/A,,Scattered Clouds,360,2013-08-23 12:55:00
8:15 AM,76.1,74.3,94,29.99,10.0,North,3.5,-,N/A,,Scattered Clouds,10,2013-08-23 13:15:00
8:35 AM,78.3,76.1,93,29.99,10.0,NNE,5.8,-,N/A,,Clear,30,2013-08-23 13:35:00
8:55 AM,80.4,76.3,87,29.99,10.0,NNE,8.1,-,N/A,,Clear,30,2013-08-23 13:55:00
9:15 AM,81.9,75.7,82,29.99,10.0,NE,9.2,-,N/A,,Clear,40,2013-08-23 14:15:00
9:35 AM,83.3,75.6,77,29.99,10.0,NNE,8.1,-,N/A,,Clear,20,2013-08-23 14:35:00
9:55 AM,84.4,75.4,74,29.99,10.0,NE,11.5,-,N/A,,Clear,50,2013-08-23 14:55:00
10:15 AM,85.3,75.4,72,30.00,10.0,NE,10.4,-,N/A,,Scattered Clouds,50,2013-08-23 15:15:00
10:35 AM,85.8,75.6,71,30.00,10.0,NNE,8.1,-,N/A,,Scattered Clouds,30,2013-08-23 15:35:00
10:55 AM,87.1,75.0,67,30.00,10.0,NE,10.4,-,N/A,,Scattered Clouds,50,2013-08-23 15:55:00
11:15 AM,87.3,74.1,65,30.00,10.0,NE,8.1,-,N/A,,Clear,40,2013-08-23 16:15:00
11:35 AM,88.2,73.0,61,30.00,10.0,NE,9.2,-,N/A,,Clear,50,2013-08-23 16:35:00
11:55 AM,88.7,73.4,60,30.00,10.0,NNE,9.2,-,N/A,,Scattered Clouds,30,2013-08-23 16:55:00
12:15 PM,89.1,72.7,58,29.99,10.0,NNE,6.9,-,N/A,,Scattered Clouds,30,2013-08-23 17:15:00
12:35 PM,89.8,72.1,56,29.99,10.0,NE,8.1,-,N/A,,Clear,40,2013-08-23 17:35:00
12:55 PM,90.1,72.0,55,29.98,10.0,NE,6.9,-,N/A,,Clear,40,2013-08-23 17:55:00
1:15 PM,90.9,71.6,53,29.97,10.0,NE,9.2,-,N/A,,Scattered Clouds,50,2013-08-23 18:15:00
1:35 PM,90.9,71.1,52,29.97,10.0,SE,5.8,-,N/A,,Scattered Clouds,130,2013-08-23 18:35:00
1:55 PM,91.2,72.0,53,29.96,10.0,SSE,9.2,-,N/A,,Scattered Clouds,150,2013-08-23 18:55:00
2:15 PM,91.4,72.9,54,29.96,10.0,ESE,15.0,23.0,N/A,,Scattered Clouds,120,2013-08-23 19:15:00
2:35 PM,87.8,74.7,65,29.96,7.0,ESE,10.4,-,N/A,,Mostly Cloudy,120,2013-08-23 19:35:00
2:55 PM,86.4,74.7,68,29.95,10.0,ESE,6.9,-,N/A,,Scattered Clouds,110,2013-08-23 19:55:00
3:15 PM,89.4,74.3,61,29.94,10.0,ESE,12.7,-,N/A,,Clear,110,2013-08-23 20:15:00
3:35 PM,90.3,74.7,60,29.93,10.0,ESE,12.7,-,N/A,,Clear,110,2013-08-23 20:35:00
3:55 PM,89.8,74.1,60,29.93,10.0,ESE,13.8,18.4,N/A,,Clear,110,2013-08-23 20:55:00
4:15 PM,89.6,73.6,59,29.93,10.0,ESE,16.1,-,N/A,,Clear,110,2013-08-23 21:15:00
4:35 PM,89.6,72.1,56,29.92,10.0,SE,15.0,-,N/A,,Clear,130,2013-08-23 21:35:00
4:55 PM,89.8,71.2,54,29.91,10.0,ESE,13.8,18.4,N/A,,Clear,120,2013-08-23 21:55:00
5:15 PM,89.2,72.3,57,29.90,10.0,ESE,16.1,-,N/A,,Clear,110,2013-08-23 22:15:00
5:35 PM,88.7,74.3,62,29.90,10.0,SE,16.1,-,N/A,,Clear,130,2013-08-23 22:35:00
5:55 PM,88.0,73.0,61,29.90,10.0,ESE,15.0,-,N/A,,Clear,120,2013-08-23 22:55:00
6:15 PM,88.0,72.5,60,29.90,10.0,ESE,13.8,-,N/A,,Clear,120,2013-08-23 23:15:00
6:35 PM,87.3,73.0,62,29.90,10.0,SE,12.7,-,N/A,,Clear,130,2013-08-23 23:35:00
6:55 PM,86.0,73.6,66,29.90,10.0,SE,13.8,-,N/A,,Clear,130,2013-08-23 23:55:00
7:15 PM,85.1,74.3,70,29.90,10.0,ESE,11.5,-,N/A,,Clear,120,2013-08-24 00:15:00
7:35 PM,84.4,74.5,72,29.90,10.0,SE,10.4,-,N/A,,Clear,130,2013-08-24 00:35:00
7:55 PM,83.7,74.7,74,29.91,10.0,SE,8.1,-,N/A,,Clear,130,2013-08-24 00:55:00
8:15 PM,82.8,74.8,77,29.91,10.0,SE,5.8,-,N/A,,Clear,130,2013-08-24 01:15:00
8:35 PM,81.9,74.7,79,29.92,10.0,SE,4.6,-,N/A,,Clear,140,2013-08-24 01:35:00
8:55 PM,80.8,74.7,82,29.92,10.0,SE,4.6,-,N/A,,Clear,140,2013-08-24 01:55:00
9:15 PM,80.4,74.7,83,29.93,10.0,South,3.5,-,N/A,,Clear,170,2013-08-24 02:15:00
9:35 PM,79.9,74.7,84,29.93,10.0,South,3.5,-,N/A,,Clear,190,2013-08-24 02:35:00
9:55 PM,80.1,74.7,83,29.94,10.0,Calm,Calm,-,N/A,,Clear,0,2013-08-24 02:55:00
10:15 PM,79.7,74.5,84,29.94,10.0,Calm,Calm,-,N/A,,Clear,0,2013-08-24 03:15:00
10:35 PM,78.8,74.3,86,29.94,10.0,Calm,Calm,-,N/A,,Clear,0,2013-08-24 03:35:00
10:55 PM,78.8,74.3,86,29.95,10.0,Calm,Calm,-,N/A,,Clear,0,2013-08-24 03:55:00
11:15 PM,78.3,74.3,88,29.95,10.0,Calm,Calm,-,N/A,,Clear,0,2013-08-24 04:15:00
11:35 PM,78.4,74.7,88,29.95,10.0,Calm,Calm,-,N/A,,Clear,0,2013-08-24 04:35:00
11:55 PM,78.3,74.5,88,29.95,10.0,Calm,Calm,-,N/A,,Clear,0,2013-08-24 04:55:00